Home > Weather > Eau Claire > Past weeks

Flag for USA Weather for the Past 2 Weeks in Eau Claire, Wisconsin, USA

Now
48 °F

Sunny.


Feels Like: 42 °F
Forecast: 37 / 59 °F
Wind: 14 mph from East

Location: Eau Claire County Airport

Current Time: Apr 30, 2016 at 10:31:06 AM

Latest Report: Apr 30, 2016 at 9:56 AM


Visibility: 10 mi

Pressure: 30.11 "Hg

Humidity: 56%

Dew Point: 33 °F

Location of Eau ClaireLocation

Historic Weather in Eau Claire — Graph

°F

Eau Claire Temperature Yesterday

Maximum temperature yesterday: 58 °F (at 4:56 PM)
Minimum temperature yesterday: 39 °F (at 1:56 AM)
Average temperature yesterday: 47 °F

High & Low Weather Summary for the Past Weeks

 TemperatureHumidityPressure
High80 °F (Apr 16, 3:56 PM)97% (Apr 18, 5:56 AM)30.34 "Hg (Apr 18, 5:56 AM)
Low33 °F (Apr 23, 4:56 AM)24% (Apr 15, 2:56 PM)29.58 "Hg (Apr 25, 1:56 PM)
Average53 °F66%30.04 "Hg
* Reported Apr 15 8:56 AM — Apr 30 8:56 AM, Eau Claire, Weather by CustomWeather, © 2016

Note: Actual official high and low records may vary slightly from our data, if they occured in-between our weather recording intervals... More about our weather records

Advertising

Eau Claire Weather History for the Previous 24 Hours

Scroll right to see more
 ConditionsComfort  
Time TempWeatherWind HumidityBarometerVisibility
8:56 AM
Sat, Apr 30
45 °FSunny.12 mph65%30.13 "Hg10 mi
7:56 AM42 °FSunny.10 mph73%30.12 "Hg10 mi
6:56 AM40 °FSunny.7 mph83%30.13 "Hg10 mi
5:56 AM38 °FClear.7 mph86%30.12 "Hg10 mi
4:56 AM39 °FClear.7 mph82%30.14 "Hg10 mi
3:56 AM39 °FClear.6 mph82%30.14 "Hg10 mi
2:56 AM38 °FClear.6 mph79%30.12 "Hg10 mi
1:56 AM43 °FClear.6 mph68%30.14 "Hg10 mi
12:56 AM46 °FPassing clouds.7 mph63%30.14 "Hg10 mi
11:56 PM
Fri, Apr 29
45 °FClear.7 mph74%30.13 "Hg10 mi
10:56 PM43 °FOvercast.3 mph82%30.13 "Hg10 mi
9:56 PM46 °FClear.No wind73%30.14 "Hg10 mi
8:56 PM50 °FSunny.7 mph63%30.13 "Hg10 mi
7:56 PM54 °FSunny.5 mph55%30.13 "Hg10 mi
6:56 PM56 °FSunny.3 mph51%30.13 "Hg10 mi
5:56 PM57 °FSunny.9 mph49%30.12 "Hg10 mi
4:56 PM58 °FPassing clouds.9 mph46%30.11 "Hg10 mi
3:56 PM57 °FPartly sunny.9 mph47%30.12 "Hg10 mi
2:56 PM55 °FPartly sunny.9 mph51%30.12 "Hg10 mi
1:56 PM55 °FOvercast.10 mph51%30.14 "Hg10 mi
12:56 PM54 °FPartly sunny.5 mph51%30.15 "Hg10 mi
11:56 AM53 °FPartly sunny.9 mph56%30.15 "Hg10 mi
10:56 AM49 °FScattered clouds.6 mph66%30.16 "Hg10 mi
Weather by CustomWeather, © 2016

See weather overviewHow to use our weather pages